Regional Weather Roundup
Issued by NWS

Home | Current Version | Previous Version | Text Only | Print | Product List | Glossary On
Versions: 1 2 3 4 5 6 7 8 9 10 11 12 13 14 15 16 17 18 19 20 21 22 23 24 25 26 27 28 29 30 31 32 33 34 35 36 37 38 39 40 41 42 43 44 45 46 47 48 49 50
000
ASUS43 KTOP 250659
RWRKS

WEATHER ROUNDUP FOR KANSAS
NATIONAL WEATHER SERVICE GOODLAND KS
200 AM CDT SAT OCT 25 2014

NOTE:  "FAIR" INDICATES FEW OR NO CLOUDS BELOW 12,000 FEET WITH NO
SIGNIFICANT WEATHER AND/OR OBSTRUCTIONS TO VISIBILITY.

KSZ001>006-013>018-027>032-041>047-250800-
NORTHWEST KANSAS

CITY           SKY/WX    TMP DP  RH WIND       PRES   REMARKS
GOODLAND       CLEAR     45  35  68 CALM      30.13S
HAYS           CLEAR     55  46  71 SW5       30.03S
HILL CITY      CLEAR     48  42  80 CALM      30.05S
RUSSELL        CLEAR     58  53  84 SW8       30.01F
$$

KSZ061>065-074>080-084>089-250800-
SOUTHWEST KANSAS

CITY           SKY/WX    TMP DP  RH WIND       PRES   REMARKS
DODGE CITY     CLEAR     58  48  69 S7        30.07F
ELKHART          N/A     58  37  45 W8          N/A
GARDEN CITY    CLEAR     53  44  71 S7        30.08S
GREAT BEND     CLEAR     57  52  82 SW5       30.04S
LIBERAL        CLEAR     55  41  58 W6        30.11S
$$

KSZ066>073-081>083-090>101-250800-
SOUTHEAST KANSAS

CITY           SKY/WX    TMP DP  RH WIND       PRES   REMARKS
CHANUTE        CLEAR     60  59  96 S5        30.02S
COFFEYVILLE    CLEAR     62  60  93 S10       30.02S
HUTCHINSON     CLEAR     64  60  87 CALM      30.03R
NEWTON         CLEAR     63  55  77 SW7       30.05S
PARSONS        CLEAR     60  59  96 CALM      30.04R
WICHITA INTL   CLEAR     59  56  89 S5        30.02S
WICHITA JABRA  CLEAR     66  60  81 SW8       30.02S
WINFIELD       CLEAR     62  60  93 S5        30.04R
$$

KSZ007>012-019>026-033>040-048>060-102>105-250800-
NORTHEAST KANSAS

CITY           SKY/WX    TMP DP  RH WIND       PRES   REMARKS
CONCORDIA      CLEAR     56  51  84 SE3       30.03S
EMPORIA        CLEAR     62  60  93 CALM      30.01S
LAWRENCE       FOG       54  53  97 CALM      30.00S VSB 1/4
MANHATTAN      CLEAR     56  56 100 CALM      30.01S FOG
OLATHE IND     CLEAR     58  58 100 SW6       30.02S FOG
OLATHE EXE     CLEAR     60  60 100 SW3       30.00S FOG
SALINA         CLEAR     62  59  90 NE3       30.03R
TOPEKA BILLARD CLEAR     60  59  96 CALM      30.01S
TOPEKA FORBES  CLEAR     62  59  90 W5        30.01S
$$



USA.gov is the U.S. government's official web portal to all federal, state and local government web resources and services.